TimeCST,TemperatureF,Dew PointF,Humidity,Sea Level PressureIn,VisibilityMPH,Wind Direction,Wind SpeedMPH,Gust SpeedMPH,PrecipitationIn,Events,Conditions,WindDirDegrees,DateUTC
12:13 AM,35.6,24.8,65,30.30,10.0,NNW,13.8,-,N/A,,Overcast,330,2013-11-10 06:13:00
12:33 AM,35.6,24.8,65,30.30,10.0,NW,10.4,-,N/A,,Overcast,310,2013-11-10 06:33:00
12:53 AM,33.8,24.8,70,30.30,10.0,WNW,8.1,-,N/A,,Overcast,290,2013-11-10 06:53:00
1:13 AM,30.2,24.8,80,30.31,10.0,WNW,5.8,-,N/A,,Scattered Clouds,290,2013-11-10 07:13:00
1:33 AM,28.4,23.0,80,30.31,10.0,West,5.8,-,N/A,,Clear,280,2013-11-10 07:33:00
1:53 AM,26.6,21.2,80,30.30,10.0,West,6.9,-,N/A,,Clear,280,2013-11-10 07:53:00
2:13 AM,26.6,21.2,80,30.31,10.0,West,5.8,-,N/A,,Clear,280,2013-11-10 08:13:00
2:34 AM,24.8,21.2,86,30.31,10.0,West,8.1,-,N/A,,Clear,270,2013-11-10 08:34:00
2:53 AM,26.6,24.8,93,30.32,10.0,West,8.1,-,N/A,,Clear,270,2013-11-10 08:53:00
3:13 AM,26.6,21.2,80,30.32,10.0,West,5.8,-,N/A,,Clear,260,2013-11-10 09:13:00
3:31 AM,24.8,19.4,80,30.32,10.0,WSW,6.9,-,N/A,,Clear,250,2013-11-10 09:31:00
3:53 AM,24.8,21.2,86,30.32,10.0,West,5.8,-,N/A,,Clear,270,2013-11-10 09:53:00
4:14 AM,23.0,21.2,93,30.32,10.0,Calm,Calm,-,N/A,,Clear,0,2013-11-10 10:14:00
4:34 AM,21.2,19.4,93,30.31,10.0,Calm,Calm,-,N/A,,Clear,0,2013-11-10 10:34:00
4:53 AM,23.0,21.2,93,30.33,10.0,WSW,5.8,-,N/A,,Clear,240,2013-11-10 10:53:00
5:13 AM,21.2,19.4,93,30.32,10.0,West,3.5,-,N/A,,Clear,260,2013-11-10 11:13:00
5:33 AM,23.0,21.2,93,30.33,10.0,WSW,4.6,-,N/A,,Clear,240,2013-11-10 11:33:00
5:53 AM,23.0,21.2,93,30.32,10.0,SW,3.5,-,N/A,,Clear,220,2013-11-10 11:53:00
6:14 AM,24.8,21.2,86,30.33,10.0,SW,5.8,-,N/A,,Clear,230,2013-11-10 12:14:00
6:34 AM,24.8,23.0,93,30.32,10.0,SSW,4.6,-,N/A,,Clear,200,2013-11-10 12:34:00
6:53 AM,24.8,23.0,93,30.32,10.0,Calm,Calm,-,N/A,,Clear,0,2013-11-10 12:53:00
7:13 AM,24.8,23.0,93,30.32,10.0,SW,5.8,-,N/A,,Clear,230,2013-11-10 13:13:00
7:33 AM,24.8,23.0,93,30.32,10.0,SW,3.5,-,N/A,,Clear,220,2013-11-10 13:33:00
7:53 AM,26.6,23.0,86,30.31,10.0,SW,3.5,-,N/A,,Clear,220,2013-11-10 13:53:00
8:13 AM,26.6,24.8,93,30.31,10.0,Calm,Calm,-,N/A,,Clear,0,2013-11-10 14:13:00
8:33 AM,26.6,24.8,93,30.31,10.0,SW,3.5,-,N/A,,Clear,230,2013-11-10 14:33:00
8:53 AM,28.4,24.8,86,30.31,10.0,SSW,5.8,-,N/A,,Clear,210,2013-11-10 14:53:00
9:13 AM,30.2,26.6,86,30.31,10.0,SW,6.9,-,N/A,,Clear,230,2013-11-10 15:13:00
9:33 AM,30.2,26.6,86,30.30,10.0,SW,5.8,-,N/A,,Clear,220,2013-11-10 15:33:00
9:53 AM,32.0,26.6,80,30.30,10.0,SSW,6.9,-,N/A,,Clear,210,2013-11-10 15:53:00
10:13 AM,35.6,26.6,70,30.30,10.0,SW,10.4,-,N/A,,Clear,220,2013-11-10 16:13:00
10:33 AM,35.6,26.6,70,30.29,10.0,SSW,9.2,-,N/A,,Scattered Clouds,200,2013-11-10 16:33:00
10:54 AM,37.4,26.6,65,30.29,10.0,SSW,10.4,-,N/A,,Overcast,200,2013-11-10 16:54:00
11:14 AM,37.4,26.6,65,30.27,10.0,SSW,10.4,-,N/A,,Overcast,200,2013-11-10 17:14:00
11:33 AM,37.4,26.6,65,30.27,10.0,SSW,9.2,-,N/A,,Overcast,210,2013-11-10 17:33:00
11:53 AM,37.4,26.6,65,30.27,10.0,SW,6.9,-,N/A,,Overcast,220,2013-11-10 17:53:00
12:14 PM,37.4,26.6,65,30.25,10.0,SSW,9.2,-,N/A,,Overcast,200,2013-11-10 18:14:00
12:33 PM,37.4,26.6,65,30.23,10.0,South,6.9,-,N/A,,Overcast,190,2013-11-10 18:33:00
12:54 PM,37.4,26.6,65,30.22,10.0,South,6.9,-,N/A,,Overcast,190,2013-11-10 18:54:00
1:13 PM,37.4,26.6,65,30.21,10.0,South,5.8,-,N/A,,Overcast,190,2013-11-10 19:13:00
1:33 PM,37.4,26.6,65,30.20,10.0,SSW,6.9,-,N/A,,Overcast,200,2013-11-10 19:33:00
1:53 PM,37.4,26.6,65,30.19,10.0,SSE,6.9,-,N/A,,Overcast,160,2013-11-10 19:53:00
2:14 PM,37.4,26.6,65,30.18,10.0,South,6.9,-,N/A,,Overcast,170,2013-11-10 20:14:00
2:33 PM,37.4,26.6,65,30.16,10.0,SE,4.6,-,N/A,,Overcast,140,2013-11-10 20:33:00
2:53 PM,37.4,26.6,65,30.15,10.0,SSE,5.8,-,N/A,,Overcast,160,2013-11-10 20:53:00
3:14 PM,37.4,26.6,65,30.14,10.0,South,9.2,-,N/A,,Overcast,170,2013-11-10 21:14:00
3:33 PM,37.4,26.6,65,30.13,10.0,SSE,8.1,-,N/A,,Overcast,150,2013-11-10 21:33:00
3:53 PM,37.4,26.6,65,30.12,10.0,SSE,9.2,-,N/A,,Overcast,160,2013-11-10 21:53:00
4:13 PM,37.4,28.4,70,30.13,10.0,South,8.1,-,N/A,,Overcast,170,2013-11-10 22:13:00
4:33 PM,37.4,28.4,70,30.13,10.0,South,8.1,-,N/A,,Overcast,190,2013-11-10 22:33:00
4:53 PM,37.4,28.4,70,30.12,10.0,South,6.9,-,N/A,,Overcast,170,2013-11-10 22:53:00
5:13 PM,37.4,28.4,70,30.12,10.0,South,5.8,-,N/A,,Overcast,170,2013-11-10 23:13:00
5:33 PM,37.4,28.4,70,30.12,10.0,SSE,4.6,-,N/A,,Overcast,150,2013-11-10 23:33:00
5:53 PM,35.6,28.4,75,30.12,10.0,SE,4.6,-,N/A,,Overcast,140,2013-11-10 23:53:00
6:13 PM,35.6,28.4,75,30.12,10.0,SE,4.6,-,N/A,,Overcast,140,2013-11-11 00:13:00
6:33 PM,35.6,28.4,75,30.11,10.0,SSE,5.8,-,N/A,,Scattered Clouds,150,2013-11-11 00:33:00
6:53 PM,35.6,28.4,75,30.11,10.0,SSE,6.9,-,N/A,,Scattered Clouds,150,2013-11-11 00:53:00
7:13 PM,35.6,30.2,81,30.10,10.0,South,6.9,-,N/A,,Mostly Cloudy,170,2013-11-11 01:13:00
7:34 PM,35.6,28.4,75,30.11,10.0,South,4.6,-,N/A,,Mostly Cloudy,180,2013-11-11 01:34:00
7:54 PM,35.6,30.2,81,30.10,10.0,South,4.6,-,N/A,,Mostly Cloudy,180,2013-11-11 01:54:00
8:14 PM,35.6,30.2,81,30.10,10.0,Calm,Calm,-,N/A,,Overcast,0,2013-11-11 02:14:00
8:33 PM,35.6,30.2,81,30.10,10.0,Calm,Calm,-,N/A,,Overcast,0,2013-11-11 02:33:00
8:54 PM,35.6,30.2,81,30.12,10.0,North,6.9,-,N/A,,Overcast,350,2013-11-11 02:54:00
9:13 PM,35.6,30.2,81,30.14,10.0,NNW,11.5,-,N/A,,Overcast,340,2013-11-11 03:13:00
9:34 PM,35.6,30.2,81,30.13,10.0,North,8.1,-,N/A,,Overcast,360,2013-11-11 03:34:00
9:53 PM,35.6,28.4,75,30.15,10.0,North,8.1,-,N/A,,Overcast,350,2013-11-11 03:53:00
10:13 PM,35.6,28.4,75,30.17,10.0,NNW,16.1,23.0,N/A,,Overcast,340,2013-11-11 04:13:00
10:33 PM,30.2,26.6,86,30.18,10.0,NNW,17.3,-,N/A,,Overcast,330,2013-11-11 04:33:00
10:54 PM,30.2,26.6,86,30.19,10.0,NNW,17.3,-,N/A,,Overcast,340,2013-11-11 04:54:00
11:13 PM,30.2,24.8,80,30.20,7.0,North,19.6,25.3,N/A,Snow,Light Snow,350,2013-11-11 05:13:00
11:33 PM,28.4,23.0,80,30.21,10.0,NNW,21.9,29.9,N/A,,Overcast,340,2013-11-11 05:33:00
11:53 PM,26.6,21.2,80,30.21,10.0,North,23.0,34.5,N/A,,Overcast,350,2013-11-11 05:53:00